TimeCDT,TemperatureF,Dew PointF,Humidity,Sea Level PressureIn,VisibilityMPH,Wind Direction,Wind SpeedMPH,Gust SpeedMPH,PrecipitationIn,Events,Conditions,WindDirDegrees,DateUTC
12:12 AM,71.6,71.6,100,29.94,8.0,Calm,Calm,-,N/A,,Partly Cloudy,0,2013-07-21 05:12:00
12:26 AM,71.6,71.6,100,29.94,8.0,Variable,3.5,-,N/A,,Mostly Cloudy,0,2013-07-21 05:26:00
12:56 AM,70.9,70.9,100,29.92,8.0,WNW,3.5,-,N/A,,Mostly Cloudy,300,2013-07-21 05:56:00
1:56 AM,70.9,70.9,100,29.93,8.0,Calm,Calm,-,0.00,Rain,Light Rain,0,2013-07-21 06:56:00
2:03 AM,71.6,71.6,100,29.94,9.0,NNW,3.5,-,0.00,,Partly Cloudy,330,2013-07-21 07:03:00
2:56 AM,70.9,70.9,100,29.91,5.0,ESE,4.6,-,0.00,,Clear,110,2013-07-21 07:56:00
3:56 AM,70.9,70.9,100,29.93,6.0,Calm,Calm,-,N/A,,Clear,0,2013-07-21 08:56:00
4:56 AM,70.9,70.9,100,29.94,6.0,Calm,Calm,-,N/A,,Partly Cloudy,0,2013-07-21 09:56:00
5:56 AM,70.9,70.9,100,29.94,3.0,Calm,Calm,-,N/A,,Scattered Clouds,0,2013-07-21 10:56:00
6:56 AM,70.9,70.9,100,29.96,3.0,South,5.8,-,N/A,,Scattered Clouds,190,2013-07-21 11:56:00
7:56 AM,73.9,72.9,96,29.96,6.0,South,4.6,-,N/A,,Clear,180,2013-07-21 12:56:00
8:56 AM,77.9,73.9,88,29.96,8.0,SW,5.8,-,N/A,,Partly Cloudy,220,2013-07-21 13:56:00
9:56 AM,81.0,73.9,79,29.98,10.0,SW,6.9,-,N/A,,Scattered Clouds,230,2013-07-21 14:56:00
10:56 AM,82.9,73.9,74,29.97,8.0,SSW,6.9,-,N/A,,Mostly Cloudy,200,2013-07-21 15:56:00
11:56 AM,83.8,73.9,72,29.96,8.0,South,6.9,-,N/A,,Mostly Cloudy,170,2013-07-21 16:56:00
12:12 PM,84.2,71.6,66,29.97,10.0,Variable,3.5,-,N/A,,Scattered Clouds,0,2013-07-21 17:12:00
12:56 PM,84.9,72.9,67,29.94,7.0,SSE,8.1,-,N/A,,Scattered Clouds,160,2013-07-21 17:56:00
1:56 PM,86.9,72.0,61,29.91,10.0,SW,9.2,-,N/A,,Scattered Clouds,230,2013-07-21 18:56:00
2:56 PM,88.9,72.9,59,29.90,10.0,South,8.1,-,N/A,,Partly Cloudy,170,2013-07-21 19:56:00
3:56 PM,86.0,72.0,63,29.89,10.0,South,8.1,-,0.00,Rain,Light Rain,190,2013-07-21 20:56:00
4:56 PM,86.9,70.9,59,29.87,10.0,SE,3.5,-,0.00,,Clear,140,2013-07-21 21:56:00
5:56 PM,86.0,72.9,65,29.86,10.0,SE,9.2,-,N/A,,Partly Cloudy,130,2013-07-21 22:56:00
6:56 PM,83.8,72.0,67,29.87,10.0,SSE,6.9,-,N/A,,Clear,150,2013-07-21 23:56:00
6:58 PM,84.2,71.6,66,29.88,10.0,SSE,6.9,-,N/A,Thunderstorm,Clear,150,2013-07-21 23:58:00
7:39 PM,80.6,75.2,84,29.88,3.0,SSE,6.9,-,0.01,Rain,Light Rain,160,2013-07-22 00:39:00
7:44 PM,78.8,75.2,89,29.90,3.0,South,32.2,38.0,0.01,Rain,Light Rain,170,2013-07-22 00:44:00
7:56 PM,72.0,72.0,100,29.90,2.0,SSE,23.0,36.8,0.08,Rain,Heavy Rain,160,2013-07-22 00:56:00
8:03 PM,71.6,71.6,100,29.90,4.0,SSE,19.6,-,0.03,Rain,Light Rain,150,2013-07-22 01:03:00
8:56 PM,70.9,70.9,100,29.93,10.0,SSE,4.6,-,0.11,Rain,Light Rain,160,2013-07-22 01:56:00
9:37 PM,71.6,71.6,100,29.94,8.0,SSE,5.8,-,0.02,Rain,Light Rain,160,2013-07-22 02:37:00
9:49 PM,71.6,71.6,100,29.94,1.8,South,5.8,-,0.09,Rain,Rain,170,2013-07-22 02:49:00
9:56 PM,70.9,70.9,100,29.92,1.8,SSE,5.8,-,0.09,Rain,Rain,160,2013-07-22 02:56:00
9:58 PM,71.6,71.6,100,29.93,3.0,SSE,6.9,-,0.00,Rain,Light Rain,160,2013-07-22 02:58:00
10:56 PM,70.9,70.9,100,29.91,10.0,South,9.2,-,0.03,,Partly Cloudy,170,2013-07-22 03:56:00
11:56 PM,70.9,70.9,100,29.89,10.0,SSE,9.2,-,N/A,,Clear,150,2013-07-22 04:56:00